Location: Fontevrault
(47.1823°N, 0.0493°E)
Time: 06:42:25
(UTC+00:00)

Cosmos 1626 - Visible Passes

Search period start: 26 October 2021 00:00
Search period end: 05 November 2021 00:00
Orbit: 489 x 491 km, 82.5° (Epoch: 25 October)

Date Brightness Start Highest point End Pass type
(mag) Time Alt. Az. Time Alt. Az. Time Alt. Az.
26 Oct 2.0 04:33:48 71° NW 04:33:48 71° NW 04:37:15 10° N visible
27 Oct 3.5 04:12:09 31° NNE 04:12:09 31° NNE 04:14:14 10° NNE visible
27 Oct 4.2 05:46:42 10° WNW 05:46:42 10° WNW 05:46:43 10° WNW visible
28 Oct 4.7 03:50:16 16° NNE 03:50:16 16° NNE 03:51:09 10° NNE visible
28 Oct 4.3 05:24:48 11° NW 05:24:48 11° NW 05:25:11 10° NNW visible
29 Oct 4.6 05:02:43 10° NNW 05:02:43 10° NNW 05:02:45 10° NNW visible
